Regional Weather Roundup
Issued by NWS

Current Version | Previous Version | Text Only | Print | Product List | Glossary Off
Versions: 1 2 3 4 5 6 7 8 9 10 11 12 13 14 15 16 17 18 19 20 21 22 23 24 25 26 27 28 29 30 31 32 33 34 35 36 37 38 39 40 41 42 43 44 45 46 47 48 49 50

000
ASUS43 KLMK 301610
RWRKY
KENTUCKY REGIONAL WEATHER ROUNDUP
NATIONAL WEATHER SERVICE LOUISVILLE KY
1200 PM EDT THU OCT 30 2014

NOTE "FAIR" INDICATES FEW OR NO CLOUDS BELOW 12,000 FEET
WITH NO SIGNIFICANT WEATHER AND/OR OBSTRUCTIONS TO VISIBILITY.

KYZ001>023-026-027-061>063-070>075-301700-
WESTERN AND SOUTH CENTRAL KENTUCKY

CITY           SKY/WX    TMP DP  RH WIND       PRES   REMARKS
PADUCAH        SUNNY     55  40  56 SE8       30.16F
HENDERSON      SUNNY     52  36  54 CALM      30.17S
OWENSBORO      SUNNY     53  38  56 CALM      30.18S
HOPKINSVILLE   SUNNY     56  39  54 SW6       30.17S
BOWLING GREEN  SUNNY     53  37  54 CALM      30.17F
GLASGOW        SUNNY     54  36  51 N3        30.16S
$$

KYZ024-025-028>034-038-045-046-053-301700-
NORTH CENTRAL KENTUCKY

CITY           SKY/WX    TMP DP  RH WIND       PRES   REMARKS
LOUISVILLE/SDF MOSUNNY   50  35  56 S3        30.17F
LOUISVILLE/LOU SUNNY     50  35  56 VRB3      30.17F
FORT KNOX      MOSUNNY   50  35  57 VRB1      30.15F
$$

KYZ035>037-039>044-047>052-055>060-089>105-301700-
NORTHEAST KENTUCKY

CITY           SKY/WX    TMP DP  RH WIND       PRES   REMARKS
LEXINGTON      CLOUDY    51  35  54 E6        30.17S
COVINGTON      PTSUNNY   51  33  50 CALM      30.15F
FRANKFORT      CLOUDY    48  33  56 CALM      30.16F
$$

KYZ054-064>069-076>088-106>120-301700-
SOUTHEAST KENTUCKY

CITY           SKY/WX    TMP DP  RH WIND       PRES   REMARKS
JACKSON        PTSUNNY   48  33  56 SE6       30.14F
LONDON         SUNNY     51  35  54 VRB3      30.14F
SOMERSET       SUNNY     50  34  53 CALM      30.16F
MIDDLESBORO    SUNNY     48  42  80 NE3       30.13F
MONTICELLO     SUNNY     53  37  54 CALM      30.16F
$$




USA.gov is the U.S. government's official web portal to all federal, state and local government web resources and services.